Find Starlink 32551

NORAD ID: 62166 Int'l Des: 2024-225 Owner: SPXS Country: US Constellation: starlink operational
LEOCIRCULAR

現在のビュー

3D地球を読み込み中...

About Starlink 32551

Starlink 32551 (NORAD 62166) is a starlink constellation satellite (v2 mini) launched Nov 30, 2024 by SPXS of US. It operates in LEO, CIRCULAR orbit with a mass of 730.00 kg.

次回通過

Passes for default location (London). Set your location on the main map for personalized predictions.

高度履歴

Loading altitude history...

軌道要素

1 62166U 24225D 26265.91668981 .00000708 00000-0 60241-4 0 9997
2 62166 70.0013 27.1035 0001737 279.9986 303.8017 15.02633990 5623
Epoch: Sep 22, 2026 • Age: 9 hours

現在のステータス

高度 562.6 km
遠地点 / 近地点 N/A
速度 7.58 km/s
衛星直下点 -8.02°S, 95.43°E
打ち上げ日 Nov 30, 2024
運用期間 1.8 years
タイプ internet

技術仕様

分類 Payload
質量 730.00 kg
乾燥質量 700.00 kg
長さ 0.30 m
スパン 29.00 m
形状 ? Box + pan
製造者 SPXS
バスタイプ Starlink V2M
フェーズステータス In Orbit
所有者/国 SPXS/US

Most Searched